This demonstration page uses our WeatherBlox Daily Observations layout. Learn more.

Left ArrowRight Arrow

Hourly Observations for March 11, 2019

Temp ( °F °C ) Dew Point ( °F °C ) Humidity (%) Winds ( mph kmh ) Pressure ( in mb ) Visibility ( mi km ) Precip ( " mm )
12:57 am 00:57 Clear 24 -4.4 20 -6.7 84 84 S 6 9 30.34 1027 10 16 0.00 0.00
1:57 am 01:57 Clear 23 -5 20 -6.7 88 88 SE 5 7 30.32 1027 10 16 0.00 0.00
2:57 am 02:57 Clear 23 -5 20 -6.7 88 88 S 8 13 30.32 1027 10 16 0.00 0.00
3:57 am 03:57 Clear 23 -5 20 -6.7 88 88 S 6 9 30.34 1027 10 16 0.00 0.00
4:57 am 04:57 Clear 23 -5 20 -6.7 88 88 SSE 3 6 30.34 1027 10 16 0.00 0.00
5:57 am 05:57 Clear 20 -6.7 18 -7.8 92 92 Calm 30.36 1028 10 16 0.00 0.00
6:57 am 06:57 Clear 21 -6.1 20 -6.7 96 96 SSW 5 7 30.37 1028 10 16 0.00 0.00
7:57 am 07:57 Sunny 20 -6.7 18 -7.8 92 92 SSW 3 6 30.37 1028 10 16 0.00 0.00
8:57 am 08:57 Sunny 26 -3.3 25 -3.9 96 96 Calm 30.40 1030 10 16 0.00 0.00
9:57 am 09:57 Sunny 28 -2.2 24 -4.4 85 85 S 5 7 30.41 1030 10 16 0.00 0.00
10:57 am 10:57 Sunny 31 -0.6 25 -3.9 79 79 S 6 9 30.41 1030 10 16 0.00 0.00
11:57 am 11:57 Sunny 34 1.1 25 -3.9 70 70 SSW 6 9 30.40 1030 10 16 0.00 0.00
12:57 pm 12:57 Sunny 36 2.2 28 -2.2 73 73 SSE 6 9 30.37 1028 10 16 0.00 0.00
1:57 pm 13:57 Sunny 38 3.3 29 -1.7 70 70 S 9 15 30.36 1028 10 16 0.00 0.00
2:57 pm 14:57 Sunny 40 4.4 30 -1.1 68 68 SSE 12 19 30.32 1027 10 16 0.00 0.00
3:57 pm 15:57 Sunny 41 5 32 0 70 70 SSE 9 15 30.30 1026 10 16 0.00 0.00
4:57 pm 16:57 Sunny 41 5 33 0.6 73 73 SSE 10 17 30.29 1026 10 16 0.00 0.00
5:57 pm 17:57 Mostly Sunny 41 5 33 0.6 73 73 SE 9 15 30.28 1026 10 16 0.00 0.00
6:57 pm 18:57 Cloudy 39 3.9 32 0 76 76 SE 7 11 30.28 1025 10 16 0.00 0.00
7:57 pm 19:57 Cloudy 38 3.3 33 0.6 83 83 SSE 8 13 30.29 1026 10 16 0.00 0.00
8:57 pm 20:57 Cloudy 37 2.8 32 0 82 82 SSE 9 15 30.28 1025 10 16 0.00 0.00
9:17 pm 21:17 Cloudy 37 3 32 0 81 81 SSE 10 17 30.29 1026 10 16 0.00 0.00
9:57 pm 21:57 Cloudy 37 2.8 33 0.6 86 86 SSE 9 15 30.27 1025 10 16 0.00 0.00
10:57 pm 22:57 Cloudy 37 2.8 32 0 82 82 SSE 15 24 30.26 1025 10 16 0.00 0.00
11:57 pm 23:57 Cloudy 36 2.2 32 0 86 86 SSE 9 15 30.24 1024 10 16 0.00 0.00

Powered by AerisWeather